Regional Weather Roundup
Issued by NWS Jackson, KY

Home | Current Version | Previous Version | Text Only | Print | Product List | Glossary On
Versions: 1 2 3 4 5 6 7 8 9 10 11 12 13 14 15 16 17 18 19 20 21 22 23 24 25 26 27 28 29 30 31 32 33 34 35 36 37 38 39 40 41 42 43 44 45 46 47 48 49 50
000
ASUS43 KJKL 251410
RWRJKL

EAST KENTUCKY HOURLY WEATHER ROUNDUP
NATIONAL WEATHER SERVICE JACKSON KY
1000 AM EDT SUN JUN 25 2017

NOTE: "FAIR" INDICATES FEW OR NO CLOUDS BELOW 12,000 FEET WITH
NO SIGNIFICANT WEATHER AND/OR OBSTRUCTIONS TO VISIBILITY.

* THESE REPORTS ARE NOT UNDER NWS QUALITY CONTROL AND MAY NOT
  REPORT WEATHER SUCH AS PRECIPITATION AND FOG.

KYZ079-080-083-085-087-088-110-112-115-119-120-251500
...EASTERN KENTUCKY...

CITY           SKY/WX    TMP DP  RH WIND       PRES   REMARKS
JACKSON        SUNNY     68  52  56 VRB3      30.22R
LONDON         SUNNY     70  52  52 NW5       30.23R
SOMERSET*      SUNNY     68  54  60 CALM      30.24S
MONTICELLO*    SUNNY     71  58  63 VRB6      30.25S
WILLIAMSBURG*  SUNNY     68  55  64 N3        30.23S
MIDDLESBORO*   MOSUNNY   70  58  63 E3        30.22F
HARLAN APT*    SUNNY     68  54  60 CALM      30.23S
PIKE CO APT*     N/A     67  55  64 W3        30.22R
BIG SANDY APT* SUNNY     69  56  63 NW3       30.21R
MOREHEAD APT*  SUNNY     68  52  56 CALM      30.22S HAZE
$$

KYZ035-036-041-042-044-050-067-078-099-251500
...CENTRAL KENTUCKY...

CITY           SKY/WX    TMP DP  RH WIND       PRES   REMARKS
MT STERLING*   SUNNY     70  50  49 W5        30.22S
FLEMING/MASON* SUNNY     69  53  55 W7        30.20S
DANVILLE*      SUNNY     72  50  46 N3        30.23S
LEXINGTON      SUNNY     70  51  51 SW6       30.21S
FRANKFORT      SUNNY     70  52  52 SW8       30.19S
LOUISVILLE     SUNNY     74  50  42 W7        30.19S
LEBANON*         N/A    N/A N/A N/A MISG        N/A
GLASGOW*       SUNNY     70  58  65 CALM      30.23R
BOWLING GREEN  SUNNY     72  58  61 CALM      30.23R
$$

KYZ091>093-OHZ055-061-077-WVZ005-015-034-035-042-251500
...SOUTHERN OHIO/WEST VIRGINIA...

CITY           SKY/WX    TMP DP  RH WIND       PRES   REMARKS
COVINGTON      SUNNY     69  50  50 W12       30.16S
COLUMBUS       SUNNY     70  49  47 W9        30.12S
DAYTON         SUNNY     69  47  45 W18       30.13S
WILMINGTON     SUNNY     69  51  52 W14G20    30.14F
HUNTINGTON     SUNNY     71  52  50 VRB3      30.17S
CHARLESTON     MOSUNNY   69  53  56 SW6       30.17R
PINEVILLE*     SUNNY     69  52  54 MISG      30.25R
BECKLEY        MOSUNNY   66  50  56 NW8       30.20S
BLUEFIELD      CLOUDY    62  55  77 VRB6      30.22S
LOGAN CO APT*    N/A     68  54  60 CALM      30.20S
$$

VAZ002-007-008-TNZ017-027-036-066-071-251500
...SOUTHWEST VIRGINIA/EAST TENNESSEE...

CITY           SKY/WX    TMP DP  RH WIND       PRES   REMARKS
WISE*          SUNNY     64  50  59 CALM      30.26R
JONESVILLE*      N/A     72  54  53 CALM      30.24S
ABINGDON*      CLOUDY    69  57  65 N5        30.21S
BRISTOL        PTSUNNY   71  58  63 N5        30.21R
MORRISTOWN*    MOSUNNY   70  55  60 CALM      30.20S
SEVIERVILLE*   CLOUDY    68  57  68 CALM      30.20S
KNOXVILLE      CLOUDY    67  57  70 CALM      30.20R
LAFOLLETTE*    SUNNY     70  54  56 NE6       30.25S
OAK RIDGE      CLOUDY    69  58  67 CALM      30.22S
CROSSVILLE     CLOUDY    66  53  63 N6        30.25S
NASHVILLE      MOSUNNY   73  54  51 N7        30.23S
$$

...KEY TO REMARKS...
VSB - VISIBILITY IN MILES
WCI - WIND CHILL INDEX
HX  - HEAT INDEX

$$



USA.gov is the U.S. government's official web portal to all federal, state and local government web resources and services.